Regional Weather Roundup
Issued by NWS

Home | Current Version | Previous Version | Text Only | Print | Product List | Glossary Off
Versions: 1 2 3 4 5 6 7 8 9 10 11 12 13 14 15 16 17 18 19 20 21 22 23 24 25 26 27 28 29 30 31 32 33 34 35 36 37 38 39 40 41 42 43 44 45 46 47 48 49 50

000
ASUS43 KLOT 041410
RWRIL

ILLINOIS REGIONAL WEATHER ROUNDUP
NATIONAL WEATHER SERVICE CHICAGO/ROMEOVILLE IL
800 AM CST WED MAR 04 2015

NOTE: "FAIR" INDICATES FEW OR NO CLOUDS BELOW 12,000 FEET WITH NO
SIGNIFICANT WEATHER AND/OR OBSTRUCTIONS TO VISIBILITY.

* THESE STATIONS ARE NOT UNDER NWS QUALITY CONTROL. THEY ALSO MAY NOT
  REPORT WEATHER SUCH AS PRECIPITATION OR FOG.

ILZ001-002-007-009-015-016-024-041500-
NORTHWEST ILLINOIS

CITY           SKY/WX    TMP DP  RH WIND       PRES   REMARKS
MOLINE         CLOUDY    13   1  59 NW15      30.17R WCI  -3
STERLING*      PTSUNNY   12   3  67 NW10      30.13R WCI  -1
SAVANNA*       PTSUNNY   13   2  61 NW12      30.14R WCI  -1
$$

ILZ003-004-008-010-011-017-018-041500-
NORTH CENTRAL ILLINOIS

CITY           SKY/WX    TMP DP  RH WIND       PRES   REMARKS
ROCKFORD       CLOUDY    14   2  58 NW20      30.10R WCI  -3
FREEPORT*      CLOUDY    10   2  67 NW13G21   30.12R WCI  -5
ROCHELLE*      PTSUNNY   12   5  73 NW9       30.10R WCI   0
DE KALB*       PTSUNNY   11   5  77 NW15G24   30.06R WCI  -5
PERU*          PTSUNNY   14   7  73 NW17      30.12R WCI  -3
$$

ILZ005-006-012>014-019>023-041500-
NORTHEAST ILLINOIS

CITY           SKY/WX    TMP DP  RH WIND       PRES   REMARKS
CHICAGO-OHARE  PTSUNNY   17  10  74 NW10      30.04R WCI   5
CHICAGO-MIDWAY PTSUNNY   20  12  71 NW16      30.04R WCI   6
AURORA         MOSUNNY   14   6  70 NW18      30.07R WCI  -3
LANSING*       SUNNY     21  14  73 NW10      30.04R WCI  10
JOLIET*        SUNNY     15   7  72 NW12      30.09R WCI   1
WAUKEGAN       CLOUDY    17   7  64 NW12G20   30.05R WCI   4
DUPAGE AIRPORT CLOUDY    15   7  70 NW16      30.05R WCI  -1
KANKAKEE*      MOSUNNY   17  11  77 NW10G20   30.08R WCI   5
WHEELING       CLOUDY    18  10  71 NW13      30.06R WCI   5
MORRIS*        SUNNY     13   8  79 NW12      30.09R WCI   0
ROMEOVILLE*    SUNNY     16   9  74 NW10      30.07R WCI   3
NORTHERLY ISL    N/A     21  13  71 NW8         N/A  WCI  12
$$

LMZ740>746-041500-
SOUTHERN LAKE MICHIGAN

STATION/POSITION SKY/WX   TEMP    WIND        PRES    VSBY  WAVE
                          AIR SEA DIR/SP/G                  HT/PER
                          (F)     (DEG/KT/KT) (MB)    (MI)  (FT/S)
WAUKEGAN HARBOR            18                   N/A
HARRISON CRIB              20     300/ 15/ 19   N/A
BURNHAM HARBOR             22     310/  9/ 14   N/A
CALUMET HARBOR             21     290/ 12/ 15 1015.7F
MICHIGAN CITY              24     280/ 15/ 18   N/A
$$

ILZ025>027-034>036-040-047-049-050-058-095>099-041500-
WEST-CENTRAL ILLINOIS

CITY           SKY/WX    TMP DP  RH WIND       PRES   REMARKS
QUINCY         CLOUDY    15   3  59 N17       30.20R WCI  -1
GALESBURG*     CLOUDY    12   4  71 NW12      30.17R WCI  -2
MACOMB*        CLOUDY    13   6  73 NW15      30.21R WCI  -3
JACKSONVILLE*  CLOUDY    17   7  65 NW15      30.17R WCI   2
PITTSFIELD*    MOSUNNY   17   6  61 NW13      30.20R WCI   4
$$

ILZ028>032-037-038-041>044-048-051>054-059>061-041500-
CENTRAL ILLINOIS

CITY           SKY/WX    TMP DP  RH WIND       PRES   REMARKS
PONTIAC        SUNNY     14   8  79 NW12      30.12R WCI   0
BLOOMINGTON    SUNNY     13   6  73 NW15      30.10R WCI  -3
DECATUR        MOSUNNY   17   9  70 NW22      30.11R WCI   0
PEORIA         CLOUDY    14   3  61 NW10G17   30.16R WCI   1
LACON*         MOSUNNY   12   3  67 NW15      30.15R WCI  -4
LINCOLN*       MOSUNNY   17   8  68 NW7       30.16R WCI   7
SPRINGFIELD    MOSUNNY   17   7  64 NW13      30.14R WCI   4
TAYLORVILLE    CLOUDY    18  10  73 NW10      30.15R WCI   6
$$

ILZ033-039-045-046-055>057-062-063-041500-
EAST-CENTRAL ILLINOIS

CITY           SKY/WX    TMP DP  RH WIND       PRES   REMARKS
CHAMPAIGN      MOSUNNY   16   9  74 NW17      30.09R WCI   0
DANVILLE*      CLOUDY    19  13  79 NW18G24   30.03R WCI   3
RANTOUL*       MOSUNNY   17  10  76 NW15      30.08R WCI   2
MATTOON        PTSUNNY   20  14  77 NW22      30.09R WCI   3
PARIS*         CLOUDY    22  18  84 NW16      30.07R WCI   8
$$

ILZ079-100>102-041500-
SOUTHWEST ILLINOIS

CITY           SKY/WX    TMP DP  RH WIND       PRES   REMARKS
ALTON          CLOUDY    19   9  63 N16       30.16R WCI   5
BELLEVILLE     CLOUDY    25  18  74 NW18      30.14R WCI  11
CAHOKIA*       CLOUDY    24  13  62 N18G29    30.17R WCI  10
SPARTA*        CLOUDY    28  22  80 N12G18    30.12R WCI  17
$$

ILZ064>066-069>071-074>076-080>082-084>086-088>090-092>094-041500-
SOUTH-CENTRAL ILLINOIS

CITY           SKY/WX    TMP DP  RH WIND       PRES   REMARKS
CARBONDALE     LGT RAIN  33  29  85 N16G23    30.08R FOG     WCI  23
CAIRO*         LGT SNOW N/A N/A N/A N14G20    30.01F
EFFINGHAM*     CLOUDY    24  15  68 NW16      30.12R WCI  10
MARION         LGT RAIN  36  32  87 N12       30.06R WCI  27
MT. VERNON     CLOUDY    30  23  74 N7        30.08R WCI  23
CENTRALIA*     CLOUDY    26  21  80 NW16G22   30.10R WCI  14
SALEM*         CLOUDY    28  22  81 NW16      30.10R WCI  15
METROPOLIS*    RAIN      36  36 100 N8G17     30.01R WCI  30
$$

ILZ067-068-072-073-078-083-087-091-041500-
SOUTHEAST ILLINOIS

CITY           SKY/WX    TMP DP  RH WIND       PRES   REMARKS
LAWRENCEVILLE  CLOUDY    34  29  82 N15       30.05R WCI  24
FLORA*         CLOUDY    29  26  86 N14       30.09R WCI  19
FAIRFIELD*     MIX PCPN  32  29  90 N10       30.05R WCI  24
HARRISBURG*    LGT RAIN  34  33  96 N7        30.06R WCI  28
ROBINSON*      CLOUDY    31  27  86 N12       30.06R WCI  22
CARMI*         CLOUDY    36  35  96 N8        30.04R FOG     WCI  29
$$

ABBREVIATIONS USED IN REMARKS
   TC - TEMPERATURE IN CELSIUS
  WCI - WIND CHILL INDEX
   HX - HEAT INDEX
  VSB - VISIBILITY
$$



USA.gov is the U.S. government's official web portal to all federal, state and local government web resources and services.